Wind_Speed
3 5 4 7 6 10 15 13 19 19 14 10 9 9 13 10 16 17 17 18 20 22 21 29 30 28 26 21 9 11 13 17 18 20 16 14 13 14 10 17 27 36 31 30
5 2 5 9 10 13 13 19 16 10 18 17 5 10 11 14 15 14 16 17 19 24 26 28 34 24 24 23 22 17 16 17 19 16 17 13 7 12 16 21 22 21 24 31
1 3 6 9 13 18 16 9 14 20 18 6 3 4 13 15 14 17 19 19 20 21 23 24 21 19 23 23 23 24 23 18 18 15 17 13 10 10 14 20 22 20 25 31
4 5 7 9 10 17 11 8 19 19 7 2 2 3 16 15 15 19 20 20 21 23 24 21 19 18 21 23 24 25 25 13 13 17 16 19 15 10 11 20 21 24 28 24
4 6 9 5 10 13 8 20 14 10 2 1 2 4 7 13 17 24 23 22 22 22 21 20 20 30 24 24 22 13 8 10 13 10 13 18 13 11 13 18 21 18 20 19
5 6 3 3 13 5 18 6 3 2 3 5 9 4 6 9 13 18 19 20 22 22 22 21 30 30 30 27 17 12 12 13 10 8 8 9 11 14 20 25 27 23 21 20
6 4 3 4 9 4 18 7 4 6 5 4 3 8 1 6 9 10 16 19 19 18 18 19 21 25 29 29 27 19 19 20 19 18 20 20 21 21 27 26 27 28 26 26
4 8 7 7 5 5 7 4 3 4 1 3 6 3 3 7 7 11 13 13 15 17 18 18 20 24 27 28 30 28 26 23 24 25 27 31 29 28 31 31 34 35 36 32
4 6 3 5 2 4 7 5 3 1 3 1 3 1 10 17 13 14 15 17 18 19 18 17 21 24 24 26 29 30 29 26 24 22 28 38 35 35 37 35 39 44 41 39
3 4 4 2 6 4 4 3 3 2 4 4 3 2 3 21 21 18 18 17 16 16 17 16 19 23 25 26 27 32 32 28 23 21 32 39 40 41 40 42 44 44 46 47
2 3 7 4 3 4 4 3 2 3 2 2 2 3 3 9 10 13 14 15 15 16 16 14 18 23 26 26 28 30 33 27 20 24 36 44 46 44 43 48 43 47 52 51
2 3 4 7 5 6 4 3 1 1 3 1 1 2 3 6 8 10 14 15 13 13 13 12 19 22 26 26 28 31 30 21 19 27 42 48 49 45 46 46 45 49 52 46
3 1 4 9 3 1 2 3 2 3 3 2 1 3 3 8 9 10 10 12 11 13 14 13 18 20 24 27 31 29 27 20 22 26 45 46 45 43 42 42 45 43 47 44
2 1 5 4 8 1 8 5 7 2 2 4 4 4 12 15 13 12 12 13 12 11 11 13 13 21 27 29 30 28 23 21 23 34 43 44 42 41 40 38 43 45 45 44
3 1 2 4 7 0 4 6 7 4 2 1 7 3 3 6 10 10 9 9 11 13 15 14 14 19 26 28 28 21 20 20 26 39 40 41 39 41 41 41 44 43 45 41
2 1 2 5 3 2 4 9 2 5 2 2 5 2 4 0 6 7 10 9 11 12 13 14 16 22 28 23 16 16 18 22 29 38 39 37 37 39 37 37 39 42 43 42
2 2 3 4 2 2 6 5 2 5 3 4 3 4 1 4 4 5 7 8 8 9 11 13 17 23 16 14 13 15 19 27 34 37 35 36 35 36 33 35 40 41 39 36
1 1 2 3 3 5 6 3 3 5 6 5 2 4 3 4 3 2 4 5 7 9 11 15 16 15 16 15 17 19 26 30 34 35 33 33 33 35 35 39 38 34 35 35
3 1 2 2 2 5 3 4 5 5 3 9 6 4 4 4 2 1 3 3 3 5 12 16 15 16 17 18 18 24 31 33 35 35 33 31 31 32 33 33 32 31 33 34
2 3 3 2 2 3 7 4 4 3 4 11 6 5 6 8 2 3 2 1 6 11 15 15 15 16 18 18 18 26 28 30 30 29 30 30 30 31 31 30 29 26 27 28
2 1 4 2 3 7 5 4 4 5 5 8 10 6 4 3 4 6 7 3 7 10 13 12 15 18 17 19 24 30 30 28 26 28 28 28 27 29 27 27 25 25 25 25
6 6 4 2 3 6 6 5 7 5 3 7 6 8 6 5 2 3 5 4 4 8 10 11 14 15 14 18 24 26 27 23 24 24 25 24 24 25 25 25 22 22 22 21
3 6 4 8 5 3 9 4 3 5 5 7 7 6 12 13 8 9 6 9 11 12 9 9 13 15 15 16 21 25 21 20 21 22 22 21 21 21 20 22 22 22 20 21
4 3 2 4 3 5 8 3 3 6 5 6 6 11 14 13 13 9 7 8 11 14 15 14 15 15 16 16 19 20 18 17 18 20 19 18 19 20 20 21 21 22 20 18
4 5 5 6 3 2 6 10 7 6 5 7 9 9 14 13 11 11 8 13 14 13 11 12 14 16 17 18 18 17 16 15 17 18 17 17 17 17 18 18 16 16 15 11
6 7 6 6 7 5 5 18 13 14 13 12 14 10 10 14 12 14 13 18 21 21 20 20 19 20 20 19 18 17 15 12 12 15 13 12 12 11 10 9 9 8 7 8
Wind_Direction
294 57 1 309 290 277 293 312 312 305 310 358 340 316 351 47 28 20 13 1 350 343 329 328 322 322 326 337 270 276 274 277 272 279 276 278 249 251 226 199 189 167 172 168
14 40 352 348 337 319 319 313 308 301 330 314 177 12 59 42 37 21 13 2 351 340 336 328 317 310 311 312 318 316 284 277 277 273 283 265 233 217 189 175 167 185 190 187
291 308 350 342 327 329 335 316 327 309 319 318 163 117 28 11 29 7 10 2 353 343 332 329 325 305 302 306 319 326 300 275 278 287 293 248 233 220 152 152 156 161 175 169
275 323 332 330 334 343 321 339 310 308 334 321 101 160 30 351 349 7 4 357 348 343 337 336 346 312 299 302 313 314 316 288 289 288 276 221 208 211 201 164 166 161 168 190
283 308 316 348 339 334 262 317 303 300 260 267 77 75 348 359 355 354 354 351 344 341 341 343 351 346 311 295 309 338 337 335 325 295 236 212 207 218 166 138 133 127 139 163
261 280 8 332 314 288 332 320 114 194 85 37 3 94 8 7 345 340 343 344 343 343 344 353 359 2 14 25 29 8 12 28 24 75 150 163 159 133 123 118 109 102 106 112
331 296 351 350 334 312 358 22 7 12 19 17 45 57 197 347 4 342 334 336 338 343 349 1 3 5 9 16 18 22 32 40 51 70 101 108 109 100 107 103 101 100 94 90
23 340 22 333 120 250 320 97 114 172 163 273 26 2 193 73 22 344 340 337 339 347 359 1 4 9 12 20 22 21 31 37 50 63 76 88 93 84 85 89 92 87 86 90
19 285 330 63 85 56 318 34 230 143 283 289 153 110 143 1 353 348 348 349 348 355 357 0 6 13 16 24 26 25 31 35 48 64 78 80 82 81 83 85 87 89 89 90
255 307 277 22 40 9 90 296 23 22 9 334 305 65 293 338 344 343 345 344 342 351 357 4 11 15 20 28 33 35 39 40 50 68 79 82 79 79 82 84 83 86 90 91
152 117 294 25 16 221 13 2 330 279 142 174 314 307 256 310 327 333 324 333 347 352 359 4 13 19 25 31 36 39 44 41 52 77 82 83 79 80 80 81 82 85 89 90
196 177 280 257 244 194 139 201 146 78 304 61 230 285 273 329 339 336 331 341 353 3 359 10 21 28 28 27 36 39 45 43 63 79 85 82 82 81 80 81 82 87 88 86
269 2 343 335 320 20 25 33 318 235 271 102 280 326 329 357 346 344 340 346 344 13 9 16 24 30 34 33 36 38 40 44 66 81 82 81 81 81 81 82 82 79 82 81
141 117 149 178 238 209 314 355 13 20 47 303 157 283 342 339 341 345 348 349 343 12 23 30 31 31 36 37 37 36 42 57 72 77 77 81 80 81 81 81 84 83 84 83
105 259 132 250 249 295 255 296 72 55 244 82 310 94 312 319 326 331 332 356 10 14 23 28 34 30 37 36 34 43 53 63 72 77 79 79 82 82 82 81 82 85 86 85
351 238 74 307 342 74 311 299 67 99 309 309 331 334 130 11 309 343 359 6 12 14 29 25 35 37 35 34 37 53 65 73 77 75 75 76 78 79 79 82 83 83 82 79
43 97 75 281 30 31 340 277 316 119 269 204 40 253 87 21 344 350 352 13 16 14 28 31 32 34 36 48 67 66 68 72 70 70 72 75 78 82 80 83 84 81 81 83
18 77 110 243 16 27 248 283 179 138 155 251 267 263 228 173 226 327 13 20 22 23 31 33 27 28 33 46 56 66 70 70 72 71 70 77 82 85 85 86 88 89 88 85
136 123 359 72 193 284 297 229 205 153 255 181 200 229 221 207 183 38 33 14 42 43 49 51 54 56 60 62 68 74 73 75 76 76 82 88 91 91 90 88 89 88 87 83
154 104 103 37 96 217 234 234 197 119 345 168 178 204 179 180 123 243 179 119 43 56 69 68 76 77 76 71 74 76 72 75 71 81 90 92 93 93 92 93 92 92 88 84
239 309 172 217 239 286 240 176 154 68 235 155 160 174 186 188 203 149 157 139 101 75 71 75 75 69 77 88 91 82 84 80 94 98 98 96 94 94 96 94 91 92 92 90
177 150 200 89 43 309 169 68 162 214 347 138 156 162 139 152 191 147 133 126 99 93 102 100 91 81 89 101 103 95 93 103 106 106 102 98 95 94 92 94 91 86 86 85
280 190 188 181 216 211 197 185 225 174 154 178 152 167 143 150 180 176 171 166 156 144 127 122 113 106 103 112 112 108 112 117 115 110 102 99 98 97 95 88 82 75 70 67
251 170 223 32 257 214 204 241 205 184 189 164 153 154 162 158 161 164 156 161 155 151 146 143 137 124 117 124 123 119 125 126 123 112 108 105 95 89 85 83 79 72 62 60
189 135 188 265 272 327 238 210 189 175 148 145 144 164 167 151 159 156 155 156 158 161 159 160 152 142 136 140 136 135 136 141 123 112 107 104 100 96 93 84 75 80 77 52
184 188 175 222 196 170 222 189 177 173 179 173 159 148 162 156 155 156 151 160 165 168 169 170 169 162 159 160 154 152 149 147 135 122 115 107 101 96 92 87 92 81 72 65
Height
787 798 803 798 793 787 780 787 784 775 767 779 776 769 777 781 775 776 776 774 769 763 757 750 742 737 732 729 726 725 724 724 725 725 726 724 725 722 720 723 720 717 726 736
798 799 793 790 788 788 784 788 784 773 769 769 772 779 787 781 784 784 784 782 776 765 752 743 735 733 730 728 726 723 721 720 721 722 721 720 720 720 718 720 719 724 729 730
809 793 788 788 788 786 788 785 786 783 771 765 769 784 786 781 783 788 786 787 781 775 762 746 732 730 727 725 722 721 718 717 717 718 717 716 717 717 714 714 719 719 723 732
805 793 790 791 793 790 795 782 780 773 781 785 772 797 789 787 790 792 790 788 784 776 764 750 736 729 725 722 721 719 716 712 712 712 711 711 713 714 714 716 718 719 727 734
800 797 793 812 796 789 800 781 776 775 777 776 768 787 808 797 796 797 794 793 787 779 769 754 742 731 720 720 720 719 715 709 708 705 705 709 711 713 715 716 719 723 724 733
804 790 792 798 789 786 786 781 761 764 779 793 777 784 809 818 823 814 806 798 792 782 771 758 749 740 730 724 721 720 716 711 709 706 705 708 710 712 713 714 717 722 729 735
815 795 793 796 798 788 794 810 838 809 807 777 769 792 819 825 828 826 818 805 796 787 776 765 758 751 743 736 730 725 720 716 713 711 707 710 712 717 716 720 723 725 732 735
856 827 807 806 821 830 813 834 868 843 809 795 772 803 813 824 829 827 821 812 802 792 780 774 768 761 753 746 739 732 727 724 720 718 717 714 718 722 724 728 728 732 737 747
862 845 806 808 813 820 822 827 812 843 821 807 787 794 808 810 828 826 821 810 801 791 786 782 775 769 762 754 747 742 735 734 731 729 725 720 727 728 732 737 737 738 746 754
846 850 808 802 815 814 818 818 828 823 855 849 810 821 838 831 830 828 824 813 807 803 796 788 781 775 768 762 757 751 746 746 744 741 730 729 732 735 741 743 745 749 753 758
837 853 822 815 844 853 829 837 826 818 821 846 845 855 849 847 844 843 830 817 816 807 801 793 788 780 774 767 764 761 757 758 758 750 739 736 738 744 750 749 759 760 763 767
832 852 857 833 828 825 823 850 845 837 816 818 820 821 842 844 846 841 832 824 820 815 806 799 792 787 780 776 774 767 766 771 770 760 747 744 749 759 761 765 770 773 773 782
839 835 856 821 814 813 832 829 835 834 825 823 817 826 838 841 846 841 839 829 821 819 806 803 795 791 790 784 778 779 779 779 773 769 748 755 763 770 775 779 780 785 785 791
831 843 853 853 832 852 837 832 837 832 843 847 843 849 849 844 845 842 840 833 821 822 816 811 801 797 793 791 792 787 790 784 783 774 767 771 778 782 786 790 791 793 797 803
837 840 861 862 855 849 854 839 855 861 857 847 831 856 861 856 849 848 841 838 830 822 816 814 810 804 802 798 797 802 804 801 792 778 783 787 793 794 798 802 801 807 809 815
837 851 851 853 860 859 850 828 846 856 864 853 847 852 857 857 853 849 845 841 833 827 825 820 817 814 809 815 818 818 816 813 805 795 795 800 802 802 809 812 812 814 817 819
845 854 864 862 853 842 833 839 855 875 870 857 857 847 851 854 855 854 850 844 842 836 832 828 823 825 832 831 831 827 820 813 806 804 809 812 813 816 820 819 818 820 824 831
845 857 861 854 865 845 823 849 846 851 868 864 862 849 850 855 853 854 851 848 845 841 836 835 837 837 835 833 829 826 821 818 816 818 822 824 826 827 828 826 831 836 836 837
842 850 852 850 889 833 814 833 835 833 838 856 850 857 851 848 849 851 851 849 848 848 845 843 842 841 839 837 836 832 828 828 829 831 834 837 836 837 837 839 841 841 841 840
836 846 849 830 840 830 817 827 822 826 818 840 842 847 849 839 842 852 851 851 846 845 847 848 848 846 845 844 842 838 837 837 839 842 843 843 844 844 844 844 846 849 847 848
851 861 855 820 861 820 821 817 813 813 800 822 836 839 836 838 841 846 847 848 849 848 847 848 849 849 850 849 845 841 843 845 849 850 850 852 853 851 852 852 853 854 854 854
829 846 853 860 850 805 813 815 810 801 816 817 827 832 841 843 844 843 846 848 846 848 852 854 855 854 854 852 850 850 850 855 856 857 857 858 858 858 856 858 860 857 857 859
819 803 803 803 796 803 800 803 803 805 804 814 815 823 828 837 841 841 843 847 851 853 855 856 857 858 858 858 857 856 859 861 862 862 861 862 861 862 864 860 859 859 860 858
803 802 807 799 793 800 798 802 800 800 799 801 805 812 817 823 832 837 841 845 848 854 858 859 860 861 861 862 862 863 864 865 865 864 865 865 863 862 863 863 863 865 865 864
795 801 798 797 791 795 791 789 789 795 798 801 806 809 813 819 829 834 839 845 848 851 854 856 859 860 862 863 864 865 866 867 865 864 865 866 867 868 867 867 867 866 869 872
786 780 782 769 759 757 759 768 779 787 791 797 802 811 817 820 826 832 838 843 848 852 855 858 860 861 862 864 864 865 866 867 866 866 867 868 868 867 867 868 869 871 872 872